RH
49 50 51 50 48 48 48 50 46 45 46 49 51 53 55 55 54 53 52 48 43 40 36 33 31 28 26 23 22 19 20 21 23 21 20 20 19 20 22 24 26 23 22
53 54 54 54 54 55 56 57 60 57 51 48 47 49 56 61 58 54 52 52 55 53 49 41 38 38 36 32 28 24 23 23 23 24 24 23 23 24 24 26 27 25 24
53 52 50 52 54 57 59 61 60 63 64 63 59 57 54 55 63 64 59 60 60 58 63 62 54 47 42 41 39 35 33 32 27 26 27 28 27 27 27 28 29 27 27
56 54 55 55 59 63 66 69 71 74 73 69 67 66 67 66 67 66 67 66 63 65 63 65 67 71 67 56 43 43 43 41 37 32 30 30 30 30 32 33 33 33 31
59 59 60 65 68 70 73 77 75 79 80 79 77 73 72 70 69 71 72 73 74 70 70 67 66 68 70 70 68 57 50 48 46 40 34 34 34 33 33 34 36 38 39
44 43 48 51 54 54 58 60 65 67 71 68 76 69 68 69 73 71 72 75 70 72 70 73 78 76 76 79 77 78 76 72 56 52 47 41 41 44 38 37 40 40 41
23 21 20 21 23 24 25 27 34 47 57 60 61 60 56 62 67 60 65 68 79 72 75 70 74 77 80 82 83 86 82 81 82 72 61 55 55 51 51 49 44 44 50
20 22 23 24 25 26 24 23 25 25 27 36 42 49 52 49 56 61 60 65 65 73 73 70 76 77 79 82 78 86 89 88 87 88 75 66 64 57 53 55 59 51 52
23 23 25 25 26 26 29 30 30 32 33 33 35 41 48 52 55 55 55 62 63 64 73 76 78 88 81 77 83 79 83 87 88 90 90 87 75 68 62 57 57 54 57
26 28 29 30 31 32 32 34 36 35 34 33 31 32 37 47 57 55 58 58 64 64 69 67 69 74 76 78 76 74 81 85 86 84 86 87 87 77 67 64 59 60 57
27 28 30 31 32 35 39 41 42 43 42 42 43 42 41 42 42 49 49 51 54 63 72 69 70 64 67 75 70 64 73 84 83 89 88 89 87 86 80 75 75 67 59
36 37 34 30 28 30 33 35 38 40 44 48 52 52 48 50 52 52 52 54 67 61 73 80 81 80 76 77 75 74 79 81 80 85 83 83 90 89 95 92 95 88 78
36 32 30 28 28 29 30 30 30 33 36 37 43 53 66 63 68 65 66 59 52 51 49 68 71 82 84 90 87 90 85 88 83 82 84 81 94 85 91 91 95 95 91
31 28 26 24 21 21 21 21 20 21 21 27 31 36 46 57 66 73 90 93 84 63 57 48 54 67 79 82 92 94 94 86 87 88 83 91 88 83 86 86 91 95 94
27 24 21 19 20 21 20 20 18 19 20 18 20 25 31 40 64 83 98 95 94 86 73 61 57 50 54 61 66 77 86 89 86 84 84 92 87 87 94 89 92 94 96
24 23 22 22 21 21 23 24 23 22 21 22 23 21 29 31 34 54 84 94 95 97 87 72 67 62 56 54 60 63 69 77 76 93 94 91 92 94 97 91 95 94 98
23 22 22 22 22 24 25 27 26 28 30 28 30 34 31 36 39 48 73 91 93 93 90 73 73 77 75 64 55 55 58 64 69 76 89 98 98 97 96 94 96 96 98
23 23 25 27 28 29 30 31 32 33 38 39 40 44 46 49 45 49 62 72 80 86 84 70 69 70 70 66 64 60 57 51 62 65 78 88 97 99 99 99 98 99 93
24 25 29 32 33 34 34 36 39 41 43 48 53 58 58 61 60 55 60 65 73 80 83 73 58 56 52 51 51 49 50 49 51 51 60 79 87 91 95 97 98 99 98
26 28 31 32 32 34 37 40 45 48 52 58 68 70 73 77 74 73 62 65 79 85 81 76 61 52 46 45 48 50 48 48 44 54 63 68 82 91 90 96 98 98 98
26 26 24 24 28 33 38 43 50 57 63 66 76 88 85 78 76 70 60 54 73 84 83 82 74 56 46 45 46 48 54 57 51 50 56 62 72 81 90 94 96 97 99
24 23 25 28 32 37 43 49 54 56 58 68 87 89 80 75 59 48 43 50 50 65 75 74 72 60 56 50 48 54 63 66 70 67 66 68 77 88 85 96 94 95 99
22 24 28 32 34 38 43 52 55 56 61 66 72 72 69 73 75 61 48 41 50 48 60 63 54 57 53 54 56 65 76 85 89 90 85 87 86 85 84 92 93 95 98
22 27 29 32 34 38 41 46 48 49 53 56 58 59 57 59 72 76 58 41 39 50 57 58 46 53 58 61 68 81 91 98 99 98 94 98 93 87 98 96 92 99 99
29 31 34 37 39 42 44 48 49 51 52 52 53 53 59 66 68 73 61 50 45 41 53 51 45 57 64 67 80 94 97 98 98 98 97 96 98 98 95 98 98 98 98
33 33 35 40 43 43 44 46 48 51 54 57 62 72 82 80 79 80 73 64 56 48 45 45 50 66 70 82 90 98 98 98 98 98 97 98 97 98 98 97 98 98 98